QPF
0.00 0.00 0.00 0.00 0.00 0.00 0.00 0.00 0.00 0.00 0.00 0.00 0.00 0.00 0.00 0.00 0.00 0.00 0.00 0.00 0.00 0.00 0.00 0.00 0.00 0.00 0.00 0.00 0.00 0.00 0.00 0.00 0.00 0.00 0.00 0.00 0.00 0.00 0.00 0.00 0.00 0.00 0.00
0.00 0.00 0.00 0.00 0.00 0.00 0.00 0.00 0.00 0.00 0.00 0.00 0.00 0.00 0.00 0.00 0.00 0.00 0.00 0.00 0.00 0.00 0.00 0.00 0.00 0.00 0.00 0.00 0.00 0.00 0.00 0.00 0.00 0.00 0.00 0.00 0.00 0.00 0.00 0.00 0.00 0.00 0.00
0.00 0.00 0.00 0.00 0.00 0.00 0.00 0.00 0.00 0.00 0.00 0.00 0.00 0.00 0.00 0.00 0.00 0.00 0.00 0.00 0.00 0.00 0.00 0.00 0.00 0.00 0.00 0.00 0.00 0.00 0.00 0.00 0.00 0.00 0.00 0.00 0.00 0.00 0.00 0.00 0.00 0.00 0.00
0.00 0.00 0.00 0.00 0.00 0.00 0.00 0.00 0.00 0.00 0.00 0.00 0.00 0.00 0.00 0.00 0.00 0.00 0.00 0.00 0.00 0.00 0.00 0.00 0.00 0.00 0.00 0.00 0.00 0.00 0.00 0.00 0.00 0.00 0.00 0.00 0.00 0.00 0.00 0.00 0.00 0.00 0.00
0.00 0.00 0.00 0.00 0.00 0.00 0.00 0.00 0.00 0.00 0.00 0.00 0.00 0.00 0.00 0.00 0.00 0.00 0.00 0.00 0.00 0.00 0.00 0.00 0.00 0.00 0.00 0.00 0.00 0.00 0.00 0.00 0.00 0.00 0.00 0.00 0.00 0.00 0.00 0.00 0.00 0.00 0.00
0.00 0.00 0.00 0.00 0.00 0.00 0.00 0.00 0.00 0.00 0.00 0.00 0.00 0.00 0.00 0.00 0.00 0.00 0.00 0.00 0.00 0.00 0.00 0.00 0.00 0.00 0.00 0.00 0.00 0.00 0.00 0.00 0.00 0.00 0.00 0.00 0.00 0.00 0.00 0.01 0.01 0.00 0.00
0.00 0.00 0.00 0.00 0.00 0.00 0.00 0.00 0.00 0.00 0.00 0.00 0.00 0.00 0.00 0.00 0.00 0.00 0.00 0.00 0.00 0.00 0.00 0.00 0.00 0.00 0.00 0.00 0.00 0.00 0.00 0.00 0.00 0.00 0.00 0.00 0.00 0.00 0.00 0.02 0.03 0.02 0.01
0.00 0.00 0.00 0.00 0.00 0.00 0.00 0.00 0.00 0.00 0.00 0.00 0.00 0.00 0.00 0.00 0.00 0.00 0.00 0.00 0.00 0.00 0.00 0.00 0.00 0.00 0.00 0.00 0.00 0.00 0.00 0.00 0.00 0.00 0.00 0.00 0.00 0.00 0.01 0.04 0.05 0.04 0.02
0.00 0.00 0.00 0.00 0.00 0.00 0.00 0.00 0.00 0.00 0.00 0.00 0.00 0.00 0.00 0.00 0.00 0.00 0.00 0.00 0.00 0.00 0.00 0.00 0.00 0.00 0.00 0.00 0.00 0.00 0.00 0.00 0.00 0.00 0.00 0.00 0.00 0.00 0.01 0.04 0.07 0.05 0.03
0.00 0.00 0.00 0.00 0.00 0.00 0.00 0.00 0.00 0.00 0.00 0.00 0.00 0.00 0.00 0.00 0.00 0.00 0.00 0.00 0.00 0.00 0.00 0.00 0.00 0.00 0.00 0.00 0.00 0.00 0.00 0.00 0.00 0.00 0.00 0.00 0.00 0.00 0.01 0.03 0.07 0.07 0.04
0.00 0.00 0.00 0.00 0.00 0.00 0.00 0.00 0.00 0.00 0.00 0.00 0.00 0.00 0.00 0.00 0.00 0.00 0.00 0.00 0.00 0.00 0.00 0.00 0.01 0.01 0.01 0.00 0.00 0.00 0.00 0.00 0.00 0.00 0.00 0.00 0.00 0.00 0.01 0.03 0.05 0.07 0.06
0.00 0.00 0.00 0.00 0.00 0.00 0.00 0.00 0.00 0.00 0.00 0.00 0.00 0.00 0.00 0.00 0.00 0.00 0.00 0.00 0.00 0.01 0.01 0.02 0.02 0.03 0.02 0.01 0.01 0.01 0.00 0.00 0.00 0.00 0.00 0.00 0.00 0.01 0.03 0.04 0.05 0.07 0.08
0.00 0.00 0.00 0.00 0.00 0.00 0.00 0.00 0.00 0.00 0.00 0.00 0.00 0.00 0.00 0.00 0.00 0.00 0.00 0.00 0.00 0.02 0.03 0.04 0.07 0.06 0.05 0.04 0.03 0.02 0.01 0.00 0.00 0.00 0.00 0.00 0.01 0.03 0.08 0.08 0.07 0.08 0.10
0.00 0.00 0.01 0.01 0.01 0.00 0.00 0.00 0.00 0.00 0.00 0.00 0.00 0.00 0.01 0.00 0.00 0.01 0.01 0.01 0.02 0.02 0.05 0.08 0.10 0.10 0.10 0.09 0.07 0.03 0.01 0.01 0.00 0.00 0.00 0.00 0.01 0.03 0.09 0.11 0.10 0.10 0.10
0.00 0.01 0.03 0.03 0.03 0.02 0.02 0.01 0.01 0.01 0.00 0.00 0.01 0.02 0.03 0.02 0.02 0.03 0.03 0.03 0.04 0.07 0.11 0.17 0.18 0.20 0.19 0.15 0.11 0.07 0.04 0.04 0.03 0.03 0.02 0.01 0.01 0.03 0.06 0.10 0.09 0.09 0.09
0.00 0.02 0.05 0.07 0.07 0.05 0.04 0.04 0.04 0.03 0.02 0.02 0.04 0.08 0.13 0.10 0.11 0.14 0.15 0.16 0.17 0.21 0.27 0.31 0.30 0.31 0.26 0.21 0.14 0.13 0.14 0.13 0.09 0.07 0.04 0.03 0.01 0.01 0.04 0.07 0.07 0.07 0.07
0.01 0.04 0.09 0.11 0.11 0.11 0.10 0.09 0.09 0.09 0.09 0.09 0.14 0.26 0.29 0.25 0.24 0.30 0.27 0.28 0.32 0.40 0.41 0.40 0.36 0.32 0.22 0.18 0.15 0.20 0.21 0.18 0.12 0.08 0.05 0.03 0.02 0.02 0.01 0.02 0.05 0.06 0.08
0.02 0.06 0.11 0.12 0.12 0.13 0.14 0.15 0.17 0.17 0.15 0.15 0.20 0.24 0.29 0.29 0.27 0.31 0.24 0.22 0.33 0.44 0.42 0.36 0.29 0.25 0.18 0.16 0.14 0.16 0.19 0.18 0.13 0.10 0.07 0.04 0.03 0.03 0.02 0.02 0.04 0.06 0.11
0.03 0.05 0.08 0.10 0.11 0.12 0.13 0.15 0.19 0.19 0.17 0.17 0.17 0.15 0.18 0.23 0.22 0.27 0.21 0.17 0.25 0.34 0.33 0.31 0.28 0.28 0.23 0.18 0.16 0.15 0.15 0.14 0.13 0.12 0.07 0.05 0.05 0.04 0.03 0.02 0.04 0.06 0.11
0.02 0.03 0.06 0.07 0.08 0.08 0.08 0.08 0.09 0.09 0.08 0.10 0.10 0.07 0.07 0.09 0.11 0.16 0.12 0.11 0.22 0.28 0.25 0.29 0.30 0.30 0.23 0.20 0.26 0.16 0.09 0.08 0.08 0.06 0.03 0.04 0.03 0.03 0.03 0.03 0.02 0.02 0.05
0.00 0.01 0.02 0.02 0.02 0.02 0.02 0.02 0.02 0.01 0.01 0.02 0.02 0.02 0.03 0.04 0.05 0.06 0.04 0.05 0.11 0.15 0.16 0.21 0.23 0.25 0.17 0.25 0.32 0.15 0.06 0.05 0.04 0.02 0.01 0.02 0.02 0.02 0.02 0.02 0.01 0.01 0.01
0.00 0.00 0.00 0.00 0.00 0.00 0.00 0.00 0.00 0.00 0.00 0.00 0.00 0.00 0.01 0.01 0.01 0.01 0.01 0.02 0.05 0.07 0.06 0.08 0.13 0.14 0.10 0.20 0.26 0.20 0.07 0.02 0.01 0.01 0.01 0.01 0.01 0.01 0.01 0.02 0.02 0.03 0.03
0.00 0.00 0.00 0.00 0.00 0.00 0.00 0.00 0.00 0.00 0.00 0.00 0.00 0.00 0.00 0.00 0.00 0.00 0.00 0.00 0.01 0.02 0.02 0.03 0.06 0.08 0.07 0.09 0.17 0.23 0.10 0.01 0.02 0.02 0.01 0.01 0.01 0.01 0.01 0.02 0.03 0.05 0.04
0.00 0.00 0.00 0.00 0.00 0.00 0.00 0.00 0.00 0.00 0.00 0.00 0.00 0.00 0.00 0.00 0.00 0.00 0.00 0.00 0.00 0.00 0.00 0.01 0.02 0.03 0.05 0.04 0.06 0.10 0.10 0.07 0.05 0.02 0.01 0.01 0.01 0.01 0.02 0.02 0.03 0.05 0.06
0.00 0.00 0.00 0.00 0.00 0.00 0.00 0.00 0.00 0.00 0.00 0.00 0.00 0.00 0.00 0.00 0.00 0.00 0.00 0.00 0.00 0.00 0.00 0.00 0.01 0.02 0.03 0.03 0.03 0.04 0.07 0.08 0.07 0.06 0.03 0.01 0.01 0.01 0.02 0.03 0.04 0.06 0.08
0.00 0.00 0.00 0.00 0.00 0.00 0.00 0.00 0.00 0.00 0.00 0.00 0.00 0.00 0.00 0.00 0.00 0.00 0.00 0.00 0.00 0.00 0.00 0.00 0.01 0.01 0.02 0.02 0.03 0.03 0.04 0.04 0.03 0.04 0.04 0.03 0.03 0.04 0.06 0.08 0.10 0.12 0.13
MSLP
1011.34 1011.05 1011.01 1011.21 1011.58 1012.03 1012.46 1012.80 1013.01 1013.10 1013.12 1013.12 1013.18 1013.32 1013.56 1013.87 1014.20 1014.51 1014.75 1014.91 1014.98 1014.99 1014.98 1014.98 1015.00 1015.06 1015.16 1015.27 1015.39 1015.49 1015.57 1015.63 1015.69 1015.75 1015.82 1015.90 1016.00 1016.11 1016.22 1016.32 1016.43 1016.52 1016.61
1011.01 1010.85 1010.94 1011.24 1011.69 1012.20 1012.66 1013.01 1013.23 1013.32 1013.33 1013.34 1013.40 1013.55 1013.80 1014.11 1014.45 1014.76 1014.99 1015.14 1015.21 1015.23 1015.22 1015.23 1015.26 1015.33 1015.42 1015.52 1015.61 1015.69 1015.74 1015.79 1015.83 1015.88 1015.95 1016.03 1016.13 1016.23 1016.32 1016.41 1016.48 1016.56 1016.64
1010.70 1010.68 1010.87 1011.26 1011.78 1012.32 1012.81 1013.18 1013.40 1013.50 1013.53 1013.55 1013.63 1013.80 1014.05 1014.35 1014.67 1014.95 1015.15 1015.28 1015.33 1015.34 1015.35 1015.37 1015.42 1015.51 1015.61 1015.70 1015.79 1015.85 1015.89 1015.92 1015.95 1016.00 1016.07 1016.16 1016.25 1016.34 1016.41 1016.47 1016.52 1016.57 1016.65
1010.47 1010.55 1010.84 1011.29 1011.85 1012.41 1012.91 1013.28 1013.51 1013.63 1013.68 1013.74 1013.85 1014.03 1014.28 1014.56 1014.84 1015.07 1015.23 1015.32 1015.35 1015.36 1015.37 1015.41 1015.49 1015.60 1015.72 1015.83 1015.91 1015.97 1016.00 1016.03 1016.06 1016.12 1016.19 1016.28 1016.36 1016.43 1016.49 1016.52 1016.55 1016.58 1016.65
1010.35 1010.52 1010.86 1011.34 1011.91 1012.47 1012.96 1013.33 1013.56 1013.70 1013.78 1013.88 1014.01 1014.21 1014.46 1014.72 1014.96 1015.14 1015.24 1015.29 1015.29 1015.29 1015.32 1015.39 1015.50 1015.64 1015.79 1015.91 1016.00 1016.06 1016.09 1016.11 1016.15 1016.21 1016.29 1016.38 1016.45 1016.51 1016.54 1016.55 1016.55 1016.58 1016.64
1010.37 1010.58 1010.94 1011.43 1011.98 1012.51 1012.97 1013.31 1013.54 1013.69 1013.81 1013.94 1014.11 1014.33 1014.58 1014.82 1015.02 1015.15 1015.21 1015.21 1015.19 1015.19 1015.23 1015.33 1015.47 1015.64 1015.81 1015.95 1016.05 1016.11 1016.14 1016.16 1016.20 1016.26 1016.34 1016.43 1016.50 1016.54 1016.55 1016.53 1016.51 1016.52 1016.58
1010.52 1010.74 1011.09 1011.55 1012.06 1012.54 1012.94 1013.25 1013.47 1013.62 1013.76 1013.92 1014.13 1014.37 1014.63 1014.86 1015.03 1015.13 1015.15 1015.12 1015.08 1015.08 1015.13 1015.25 1015.42 1015.62 1015.80 1015.95 1016.05 1016.10 1016.13 1016.15 1016.18 1016.24 1016.32 1016.40 1016.46 1016.48 1016.47 1016.44 1016.40 1016.40 1016.45
1010.76 1010.97 1011.30 1011.71 1012.16 1012.57 1012.91 1013.16 1013.35 1013.50 1013.65 1013.84 1014.07 1014.34 1014.61 1014.84 1015.00 1015.08 1015.07 1015.03 1014.98 1014.97 1015.03 1015.16 1015.35 1015.55 1015.74 1015.89 1015.97 1016.02 1016.03 1016.04 1016.07 1016.12 1016.19 1016.26 1016.31 1016.32 1016.29 1016.23 1016.18 1016.17 1016.22
1011.03 1011.23 1011.53 1011.90 1012.28 1012.62 1012.89 1013.08 1013.22 1013.35 1013.50 1013.70 1013.96 1014.25 1014.53 1014.77 1014.93 1015.00 1014.99 1014.93 1014.88 1014.87 1014.93 1015.05 1015.23 1015.43 1015.60 1015.73 1015.81 1015.83 1015.83 1015.83 1015.85 1015.89 1015.95 1016.01 1016.04 1016.03 1015.99 1015.91 1015.84 1015.81 1015.86
1011.27 1011.48 1011.76 1012.09 1012.41 1012.68 1012.88 1013.02 1013.11 1013.21 1013.35 1013.55 1013.81 1014.11 1014.40 1014.65 1014.81 1014.89 1014.88 1014.82 1014.76 1014.74 1014.79 1014.90 1015.06 1015.23 1015.38 1015.48 1015.54 1015.54 1015.53 1015.52 1015.52 1015.55 1015.60 1015.64 1015.66 1015.64 1015.57 1015.48 1015.40 1015.36 1015.39
1011.44 1011.66 1011.94 1012.24 1012.52 1012.75 1012.89 1012.98 1013.03 1013.09 1013.20 1013.39 1013.64 1013.94 1014.24 1014.49 1014.65 1014.73 1014.72 1014.67 1014.60 1014.57 1014.59 1014.67 1014.79 1014.93 1015.05 1015.13 1015.16 1015.16 1015.13 1015.11 1015.11 1015.13 1015.16 1015.19 1015.20 1015.16 1015.08 1014.98 1014.88 1014.83 1014.86
1011.51 1011.75 1012.04 1012.34 1012.60 1012.79 1012.90 1012.95 1012.96 1012.99 1013.08 1013.24 1013.47 1013.75 1014.03 1014.28 1014.44 1014.52 1014.52 1014.46 1014.39 1014.33 1014.32 1014.36 1014.44 1014.54 1014.62 1014.68 1014.70 1014.69 1014.66 1014.64 1014.64 1014.65 1014.68 1014.69 1014.68 1014.63 1014.54 1014.43 1014.33 1014.28 1014.29
1011.46 1011.74 1012.04 1012.35 1012.60 1012.78 1012.88 1012.91 1012.91 1012.91 1012.97 1013.09 1013.29 1013.54 1013.79 1014.02 1014.17 1014.25 1014.24 1014.18 1014.09 1014.02 1013.97 1013.97 1014.01 1014.06 1014.12 1014.16 1014.17 1014.17 1014.15 1014.14 1014.15 1014.16 1014.17 1014.17 1014.14 1014.08 1013.98 1013.87 1013.77 1013.71 1013.73
1011.32 1011.61 1011.93 1012.25 1012.51 1012.70 1012.81 1012.84 1012.83 1012.82 1012.85 1012.94 1013.09 1013.29 1013.51 1013.70 1013.84 1013.91 1013.90 1013.83 1013.73 1013.63 1013.55 1013.51 1013.50 1013.52 1013.55 1013.59 1013.61 1013.62 1013.63 1013.64 1013.65 1013.66 1013.66 1013.64 1013.59 1013.51 1013.40 1013.29 1013.20 1013.16 1013.18
1011.12 1011.41 1011.73 1012.04 1012.32 1012.53 1012.66 1012.72 1012.72 1012.71 1012.71 1012.76 1012.87 1013.01 1013.18 1013.33 1013.44 1013.49 1013.47 1013.40 1013.29 1013.17 1013.07 1012.99 1012.95 1012.95 1012.97 1013.00 1013.04 1013.08 1013.11 1013.14 1013.16 1013.16 1013.15 1013.10 1013.03 1012.93 1012.81 1012.70 1012.62 1012.59 1012.63
1010.90 1011.16 1011.45 1011.76 1012.05 1012.29 1012.45 1012.54 1012.57 1012.56 1012.55 1012.57 1012.62 1012.70 1012.81 1012.91 1012.99 1013.02 1012.99 1012.91 1012.80 1012.67 1012.54 1012.44 1012.38 1012.36 1012.37 1012.42 1012.47 1012.54 1012.60 1012.65 1012.67 1012.66 1012.62 1012.55 1012.45 1012.32 1012.19 1012.08 1012.01 1011.99 1012.05
1010.71 1010.91 1011.16 1011.45 1011.74 1012.00 1012.20 1012.33 1012.40 1012.41 1012.38 1012.36 1012.35 1012.37 1012.41 1012.45 1012.49 1012.50 1012.46 1012.38 1012.26 1012.13 1012.00 1011.88 1011.81 1011.78 1011.79 1011.85 1011.93 1012.02 1012.10 1012.15 1012.18 1012.15 1012.08 1011.97 1011.83 1011.68 1011.53 1011.41 1011.34 1011.33 1011.40
1010.59 1010.70 1010.89 1011.14 1011.43 1011.71 1011.95 1012.13 1012.23 1012.26 1012.23 1012.17 1012.10 1012.05 1012.01 1012.00 1011.98 1011.96 1011.91 1011.83 1011.72 1011.59 1011.45 1011.34 1011.25 1011.22 1011.24 1011.30 1011.40 1011.50 1011.60 1011.66 1011.67 1011.63 1011.52 1011.37 1011.19 1011.00 1010.83 1010.70 1010.62 1010.62 1010.68
1010.52 1010.56 1010.68 1010.89 1011.17 1011.47 1011.75 1011.97 1012.10 1012.15 1012.11 1012.01 1011.89 1011.76 1011.65 1011.57 1011.50 1011.45 1011.38 1011.30 1011.19 1011.06 1010.93 1010.81 1010.72 1010.69 1010.71 1010.78 1010.88 1011.00 1011.10 1011.16 1011.16 1011.09 1010.95 1010.76 1010.54 1010.32 1010.12 1009.97 1009.88 1009.86 1009.91
1010.52 1010.48 1010.54 1010.72 1010.99 1011.30 1011.61 1011.87 1012.04 1012.10 1012.05 1011.92 1011.74 1011.54 1011.36 1011.21 1011.09 1011.00 1010.91 1010.81 1010.70 1010.57 1010.44 1010.31 1010.22 1010.18 1010.20 1010.27 1010.38 1010.50 1010.60 1010.66 1010.64 1010.55 1010.39 1010.17 1009.92 1009.66 1009.44 1009.26 1009.16 1009.12 1009.14
1010.54 1010.45 1010.48 1010.63 1010.89 1011.21 1011.55 1011.84 1012.03 1012.11 1012.06 1011.90 1011.67 1011.42 1011.17 1010.95 1010.77 1010.63 1010.52 1010.40 1010.27 1010.13 1009.98 1009.85 1009.74 1009.69 1009.70 1009.76 1009.87 1009.99 1010.09 1010.15 1010.13 1010.02 1009.84 1009.61 1009.34 1009.07 1008.83 1008.64 1008.51 1008.44 1008.43
1010.56 1010.45 1010.45 1010.59 1010.85 1011.18 1011.54 1011.85 1012.07 1012.16 1012.11 1011.94 1011.68 1011.38 1011.07 1010.80 1010.57 1010.38 1010.22 1010.07 1009.91 1009.74 1009.56 1009.40 1009.27 1009.20 1009.19 1009.24 1009.34 1009.46 1009.56 1009.62 1009.60 1009.50 1009.33 1009.10 1008.83 1008.57 1008.33 1008.13 1007.98 1007.89 1007.84
1010.57 1010.45 1010.45 1010.58 1010.83 1011.17 1011.53 1011.86 1012.10 1012.21 1012.17 1012.00 1011.73 1011.40 1011.07 1010.75 1010.47 1010.23 1010.01 1009.81 1009.60 1009.38 1009.16 1008.95 1008.78 1008.67 1008.64 1008.67 1008.76 1008.87 1008.98 1009.05 1009.05 1008.98 1008.83 1008.63 1008.40 1008.16 1007.94 1007.75 1007.60 1007.49 1007.41
1010.55 1010.45 1010.45 1010.57 1010.81 1011.14 1011.50 1011.84 1012.09 1012.21 1012.20 1012.04 1011.78 1011.45 1011.10 1010.76 1010.44 1010.15 1009.87 1009.60 1009.31 1009.02 1008.73 1008.46 1008.23 1008.08 1008.01 1008.02 1008.09 1008.20 1008.32 1008.41 1008.45 1008.42 1008.32 1008.18 1008.00 1007.82 1007.65 1007.50 1007.37 1007.25 1007.15
1010.56 1010.46 1010.44 1010.54 1010.76 1011.06 1011.40 1011.73 1011.99 1012.13 1012.14 1012.01 1011.78 1011.48 1011.13 1010.78 1010.43 1010.09 1009.74 1009.39 1009.02 1008.64 1008.26 1007.90 1007.61 1007.39 1007.28 1007.26 1007.32 1007.43 1007.57 1007.69 1007.77 1007.80 1007.78 1007.71 1007.62 1007.52 1007.42 1007.33 1007.24 1007.15 1007.04
1010.61 1010.50 1010.45 1010.51 1010.68 1010.94 1011.24 1011.54 1011.79 1011.94 1011.98 1011.89 1011.70 1011.43 1011.11 1010.76 1010.38 1010.00 1009.58 1009.14 1008.68 1008.19 1007.72 1007.27 1006.90 1006.62 1006.45 1006.40 1006.45 1006.57 1006.72 1006.88 1007.02 1007.12 1007.18 1007.21 1007.22 1007.21 1007.21 1007.20 1007.18 1007.13 1007.05
Thickness
5823 5823 5820 5816 5812 5809 5806 5804 5802 5800 5797 5795 5792 5790 5787 5785 5783 5781 5780 5778 5777 5776 5774 5773 5771 5769 5766 5764 5762 5761 5759 5757 5756 5755 5754 5753 5751 5749 5748 5747 5746 5745 5744
5830 5825 5821 5817 5813 5809 5806 5803 5801 5798 5796 5793 5791 5789 5787 5784 5782 5780 5779 5777 5776 5774 5773 5771 5769 5767 5765 5763 5761 5759 5757 5755 5754 5754 5753 5753 5752 5750 5748 5747 5745 5745 5745
5831 5826 5821 5817 5813 5808 5805 5802 5800 5797 5794 5792 5790 5788 5786 5784 5782 5780 5778 5776 5774 5773 5771 5770 5768 5766 5764 5762 5760 5758 5756 5754 5753 5752 5752 5751 5751 5750 5749 5747 5746 5745 5744
5831 5826 5821 5816 5812 5808 5804 5802 5799 5796 5794 5791 5789 5787 5785 5783 5781 5779 5777 5775 5773 5772 5770 5769 5767 5765 5763 5761 5759 5757 5755 5753 5752 5751 5750 5749 5749 5749 5749 5748 5746 5745 5744
5830 5825 5821 5816 5812 5808 5804 5802 5799 5796 5794 5791 5789 5786 5784 5782 5780 5778 5776 5774 5772 5771 5769 5768 5766 5765 5763 5760 5758 5756 5754 5752 5751 5750 5749 5748 5748 5748 5747 5747 5746 5745 5744
5828 5824 5820 5815 5811 5807 5804 5801 5798 5795 5793 5790 5788 5785 5783 5781 5779 5777 5775 5773 5771 5770 5768 5767 5765 5764 5762 5760 5758 5756 5754 5752 5750 5749 5748 5747 5747 5747 5746 5746 5746 5745 5744
5827 5823 5818 5814 5810 5806 5803 5800 5797 5795 5792 5789 5787 5784 5781 5779 5777 5775 5773 5771 5770 5768 5767 5765 5764 5762 5761 5759 5757 5755 5753 5751 5750 5748 5747 5746 5746 5746 5746 5746 5746 5745 5744
5826 5821 5817 5813 5809 5805 5802 5799 5797 5794 5791 5789 5786 5783 5780 5778 5776 5774 5772 5770 5768 5767 5765 5764 5762 5761 5759 5757 5756 5754 5753 5751 5750 5748 5747 5746 5746 5746 5746 5746 5746 5745 5745
5823 5819 5815 5812 5808 5805 5801 5798 5796 5793 5791 5788 5785 5782 5780 5777 5775 5773 5771 5770 5768 5766 5764 5763 5761 5760 5758 5756 5755 5753 5752 5751 5750 5748 5747 5746 5746 5745 5746 5747 5747 5746 5745
5819 5816 5813 5810 5807 5804 5801 5798 5795 5792 5790 5787 5785 5782 5779 5777 5775 5773 5771 5769 5768 5766 5764 5762 5760 5759 5757 5756 5754 5753 5751 5751 5750 5749 5748 5747 5746 5746 5746 5747 5748 5748 5747
5814 5812 5810 5807 5804 5801 5798 5796 5794 5791 5789 5786 5784 5781 5779 5776 5774 5772 5770 5769 5767 5765 5763 5761 5760 5758 5757 5755 5754 5753 5751 5750 5750 5749 5749 5749 5748 5747 5747 5747 5748 5748 5748
5810 5809 5807 5804 5800 5797 5795 5793 5791 5789 5787 5785 5782 5780 5777 5775 5772 5770 5768 5766 5765 5764 5762 5761 5759 5757 5756 5754 5753 5752 5751 5750 5749 5749 5750 5750 5749 5749 5749 5749 5749 5750 5750
5810 5806 5804 5801 5797 5793 5791 5789 5787 5785 5783 5781 5779 5777 5774 5771 5769 5767 5765 5763 5762 5761 5760 5759 5758 5756 5755 5753 5752 5751 5750 5749 5749 5749 5750 5750 5750 5750 5751 5751 5751 5751 5751
5806 5803 5800 5797 5793 5790 5787 5784 5782 5779 5777 5776 5774 5772 5769 5767 5765 5763 5761 5760 5758 5756 5756 5755 5754 5753 5752 5752 5751 5750 5749 5748 5748 5748 5749 5750 5750 5751 5751 5752 5752 5753 5753
5802 5799 5795 5792 5789 5785 5781 5778 5775 5773 5772 5770 5767 5765 5763 5762 5760 5758 5757 5755 5754 5752 5751 5750 5749 5749 5748 5748 5749 5749 5748 5748 5747 5747 5748 5749 5750 5751 5752 5752 5753 5753 5753
5798 5794 5790 5786 5783 5779 5775 5772 5769 5766 5765 5763 5762 5760 5758 5756 5755 5753 5752 5751 5750 5749 5748 5747 5746 5745 5744 5744 5745 5746 5747 5746 5746 5745 5746 5747 5749 5750 5751 5752 5753 5754 5754
5794 5790 5785 5782 5777 5773 5769 5766 5764 5762 5760 5758 5757 5755 5753 5751 5750 5750 5748 5749 5749 5747 5746 5744 5743 5742 5742 5742 5742 5743 5743 5743 5743 5744 5744 5745 5747 5748 5749 5750 5751 5753 5754
5789 5784 5780 5778 5772 5768 5765 5762 5760 5758 5756 5754 5753 5751 5749 5747 5746 5745 5745 5746 5747 5745 5745 5743 5742 5740 5739 5738 5738 5740 5740 5740 5740 5742 5742 5743 5744 5745 5746 5748 5749 5751 5752
5783 5779 5775 5772 5768 5765 5762 5758 5755 5753 5751 5749 5747 5746 5745 5743 5742 5741 5741 5743 5743 5742 5742 5740 5739 5738 5736 5736 5735 5736 5736 5735 5737 5738 5739 5741 5742 5743 5743 5744 5746 5748 5749
5779 5775 5771 5767 5764 5760 5756 5751 5748 5745 5744 5742 5741 5739 5738 5736 5735 5735 5735 5736 5737 5737 5737 5736 5735 5735 5734 5734 5732 5733 5734 5733 5734 5735 5736 5738 5739 5740 5741 5742 5743 5745 5747
5771 5768 5764 5761 5757 5753 5747 5742 5737 5735 5734 5733 5733 5731 5730 5729 5728 5728 5728 5729 5729 5729 5731 5731 5730 5729 5729 5729 5723 5724 5728 5730 5731 5732 5733 5734 5736 5737 5738 5740 5740 5742 5743
5764 5761 5758 5755 5751 5746 5741 5737 5733 5729 5727 5725 5723 5722 5721 5720 5720 5720 5720 5721 5722 5722 5724 5724 5723 5723 5724 5723 5718 5714 5714 5720 5726 5730 5730 5730 5732 5734 5735 5737 5737 5738 5739
5757 5755 5753 5748 5744 5740 5736 5731 5726 5722 5718 5715 5713 5712 5711 5711 5711 5711 5712 5713 5714 5715 5716 5718 5718 5717 5717 5718 5716 5711 5707 5710 5716 5722 5724 5726 5727 5727 5729 5731 5732 5734 5734
5754 5751 5747 5742 5738 5734 5730 5725 5719 5713 5708 5707 5704 5703 5702 5701 5701 5702 5703 5704 5706 5708 5709 5712 5714 5714 5713 5713 5713 5712 5712 5712 5708 5711 5716 5718 5720 5720 5722 5724 5725 5727 5729
5749 5745 5740 5736 5732 5729 5725 5720 5714 5709 5705 5702 5699 5696 5694 5693 5692 5692 5693 5695 5696 5699 5701 5704 5707 5708 5709 5709 5709 5708 5707 5706 5706 5703 5705 5709 5710 5713 5714 5716 5718 5719 5721
5743 5739 5734 5731 5728 5725 5721 5716 5711 5706 5702 5697 5694 5690 5688 5686 5684 5684 5684 5685 5687 5690 5693 5696 5700 5702 5704 5705 5705 5705 5703 5702 5702 5700 5700 5702 5701 5704 5705 5707 5709 5711 5713